Flag for Germany Weather past 2 weeks in Mühlhausen/Thüringen, Thuringia, Germany

Now
56 °F

Passing clouds.


Feels Like: 56 °F
Forecast: 42 / 72 °F
Wind: 5 mph from Northeast

Location: Erfurt-Bindersleben


UV Index: 3 (Moderate)

Visibility: 11 mi


Pressure: 29.67 "Hg

Humidity: 76%

Dew point: 49 °F

Location of Mühlhausen/ThüringenLocation

Historic Weather in Mühlhausen/Thüringen

°F

Mühlhausen/Thüringen temperature yesterday

Maximum temperature yesterday: 63 °F (at 4:00 PM)
Minimum temperature yesterday: 48 °F (at 7:00 AM)
Average temperature yesterday: 55 °F

Past Weeks' High & Low Weather Summary

 TemperatureHumidityPressure
High67 °F (Apr 7, 3:00 PM)100% (Apr 19, 11:00 AM)30.47 "Hg (Apr 19, 11:00 AM)
Low31 °F (Apr 17, 3:00 AM)33% (Apr 17, 5:00 PM)29.70 "Hg (Apr 21, 11:00 AM)
Average48 °F75%30.05 "Hg
* Reported Apr 6 11:00 AM — Apr 21 11:00 AM, Mühlhausen/Thüringen, Weather by CustomWeather, © 2014

Note: Actual official high and low records may vary slightly from our data, if they occured in-between our weather recording intervals... More about our weather records

Advertising

Historic Weather Conditions — Data for Previous 24 hours

 ConditionsComfort  
Time TempWeatherWind HumidityBarometerVisibility
11:00 AM
Apr 21
53 °FPassing clouds.3 mph83%29.70 "Hg8 mi
10:00 AM51 °FPassing clouds.2 mph89%29.71 "Hg7 mi
9:00 AM49 °FPassing clouds.2 mph91%29.72 "Hg7 mi
8:00 AM43 °FPassing clouds.1 mph94%29.74 "Hg7 mi
7:00 AM43 °FFog.1 mph97%29.73 "Hg6 mi
6:00 AM40 °FFog.2 mph96%29.74 "Hg5 mi
5:00 AM43 °FPassing clouds.1 mph92%29.74 "Hg16 mi
4:00 AM46 °FPassing clouds.1 mph85%29.74 "Hg19 mi
3:00 AM48 °FPassing clouds.2 mph83%29.75 "Hg25 mi
2:00 AM50 °FPassing clouds.2 mph80%29.77 "Hg25 mi
1:00 AM49 °FPassing clouds.2 mph83%29.79 "Hg31 mi
12:00 AM51 °FPassing clouds.2 mph84%29.79 "Hg31 mi
11:00 PM
Apr 20
51 °FPassing clouds.3 mph81%29.80 "Hg31 mi
10:00 PM51 °FPassing clouds.3 mph81%29.80 "Hg31 mi
9:00 PM51 °FThunderstorms. Passing clouds.3 mph85%29.80 "Hg31 mi
8:00 PM52 °FThundershowers. Partly sunny.2 mph83%29.79 "Hg19 mi
7:00 PM56 °FThundershowers. Partly sunny.2 mph75%29.76 "Hg37 mi
6:00 PM56 °FThundershowers. Partly sunny.5 mph70%29.77 "Hg6 mi
5:00 PM62 °FPartly sunny.8 mph58%29.76 "Hg19 mi
4:00 PM63 °FPartly sunny.6 mph57%29.76 "Hg31 mi
3:00 PM62 °FScattered clouds.6 mph55%29.78 "Hg31 mi
2:00 PM60 °FScattered clouds.6 mph59%29.80 "Hg25 mi
1:00 PM61 °FScattered clouds.5 mph60%29.81 "Hg25 mi
12:00 PM58 °FScattered clouds.5 mph67%29.82 "Hg22 mi
Weather by CustomWeather, © 2014

See weather overview